Regional Weather Roundup
Issued by NWS

Home | Current Version | Previous Version | Graphics & Text | Print | Product List | Glossary On
Versions: 1 2 3 4 5 6 7 8 9 10 11 12 13 14 15 16 17 18 19 20 21 22 23 24 25 26 27 28 29 30 31 32 33 34 35 36 37 38 39 40 41 42 43 44 45 46 47 48 49
000
ASUS45 KBOU 262210
RWRCO

WEATHER ROUNDUP FOR COLORADO
NATIONAL WEATHER SERVICE DENVER/BOULDER CO
400 PM MDT THU APR 26 2018

NOTE: "FAIR" INDICATES FEW OR NO CLOUDS BELOW 12000 FEET WITH NO
SIGNIFICANT WEATHER AND/OR OBSTRUCTIONS TO VISIBILITY.

COZ001>005-013-030-031-262300-
...NORTHWEST COLORADO...

CITY           SKY/WX    TMP DP  RH WIND       PRES   REMARKS
CRAIG          FAIR      61  22  22 VRB3      30.24F
HAYDEN         FAIR      58  21  24 VRB7      30.26F
MEEKER         FAIR      63  21  20 NE10      30.23F
RANGELY        FAIR      66  24  20 E12       30.20F
RABBIT EARS PA FAIR      43  14  31 NW7       30.39S
STEAMBOAT SPGS FAIR      58  17  20 SW7G16    30.24F
WALDEN         FAIR      54  10  17 NW12G20   30.31S
$$

COZ006>008-011-262300-
...WEST CENTRAL VALLEYS...

CITY           SKY/WX    TMP DP  RH WIND       PRES   REMARKS
GRAND JUNCTION FAIR      73  21  14 CALM      30.11F
MONTROSE       FAIR      69  13  11 N10G18    30.17F
EAGLE          FAIR      64  12  13 NW12      30.22F
RIFLE          FAIR      68  20  16 W7        30.17F
DELTA          FAIR      77  17  10 SW15G25   30.12F
NUCLA          FAIR      73   7   7 N15       30.17F
$$

COZ017>023-064>068-262300-
...SOUTHWEST COLORADO...

CITY           SKY/WX    TMP DP  RH WIND       PRES   REMARKS
DURANGO        FAIR      74  -7   4 VRB5      30.07F
CORTEZ         FAIR      76   2   5 N15G25    30.08F
PAGOSA SPRINGS FAIR      68  -9   4 NW3       30.15F
TELLURIDE      FAIR      58   8  13 N6        30.30S
WOLF CREEK PAS FAIR      43   3  19 N6        30.44S
$$

COZ009-010-012-014-032>034-037-058>063-262300-
...CENTRAL COLORADO...

CITY           SKY/WX    TMP DP  RH WIND       PRES   REMARKS
ASPEN          FAIR      61  16  17 NW15      30.23S
BUENA VISTA    FAIR      62   6  11 NW13G22   30.20F
COPPER MTN     NOT AVBL
BERTHOUD PASS  FAIR      30  19  64 NW12G23   30.41S WCI  21
COTTONWOOD PAS FAIR      61   5  11 CALM      30.30S
GUNNISON       FAIR      63   9  12 N12G21    30.20F
GRANBY         FAIR      55  14  19 NW12G18   30.28F
KREMMLING      FAIR      63   9  12 N6        30.26F
LEADVILLE      FAIR      50  14  23 NW9G18    30.30F
MONARCH PASS   FAIR      43  10  26 E10       30.49R
SALIDA         FAIR      65   8  10 N7        30.25F
SUNLIGHT       FAIR      41  14  33 N3        30.42F
WILKERSON PASS FAIR      34  25  69 CALM      30.39S
$$

COZ069>075-262300-
...SAN LUIS VALLEY/SANGRE DE CRISTO MOUNTAINS...

CITY           SKY/WX    TMP DP  RH WIND       PRES   REMARKS
ALAMOSA        FAIR      63  18  17 E16       30.17S
DEL NORTE      FAIR      66   6   9 NE8G16    30.17F
LA VETA PASS   FAIR      39  27  60 N23G31    30.44S
SAGUACHE       NOT AVBL
$$

COZ035-036-038>040-262300-
...NORTHERN COLORADO FRONT RANGE...

CITY           SKY/WX    TMP DP  RH WIND       PRES   REMARKS
DENVER INTL AP FAIR      58  24  27 N8        30.25F
AURORA         MOSUNNY   58  23  26 NE12G20   30.26F
FRONT RANGE AP MOSUNNY   59  25  27 N10G28    30.26F
ERIE MUNI ARPT FAIR      60  22  23 N6        30.29F
BOULDER MUN AP FAIR      59  27  29 N8        30.24F
CENTENNIAL     FAIR      56  26  31 N9G18     30.26F
BROOMFIELD     MOSUNNY   59  25  27 NE9       30.26F
FORT COLLINS   FAIR      62  25  24 S9        30.23F
LONGMONT       FAIR      64  25  23 NE8       30.25F
$$

COZ041-046-047-076>085-087-088-262300-
...PIKES PEAK/PALMER DIVIDE AND SOUTHERN FOOTHILLS...

CITY           SKY/WX    TMP DP  RH WIND       PRES   REMARKS
COLO. SPRINGS  FAIR      57  28  33 N22G29    30.25F
A. F. ACADEMY  MOSUNNY   52  26  35 N20G30    30.25F
SCHRIEVER AFB  NOT AVBL
CHEYENNE MTN   FAIR      49  26  40 N17G26    30.20S
ELLICOTT         N/A    N/A N/A N/A N23G30    30.24F
FALCON         FAIR      53  21  29 N18G28    30.27F
FORT CARSON    FAIR      58  26  29 N24G30    30.21F
LIMON          FAIR      57  24  28 N22G32    30.24S
MONUMENT HILL  FAIR      48  27  43 N12G23    30.29F
CANON CITY     FAIR      63  32  31 SE15      30.21R
WALSENBURG     NOT AVBL
TRINIDAD       PTSUNNY   56  24  29 N13G31    30.25S
$$

COZ042>045-048>051-090-091-262300-
...NORTHEAST COLORADO...

CITY           SKY/WX    TMP DP  RH WIND       PRES   REMARKS
GREELEY ARPT   FAIR      61  24  24 NE9G17    30.23F
AKRON          PTSUNNY   57  27  31 N18G28    30.23S
BURLINGTON     PTSUNNY   61  28  28 N25G32    30.19F
WRAY           PTSUNNY   63  27  25 N16G28    30.19F
YUMA           MOCLDY    55  19  24 N18       30.20F
STERLING       NOT AVBL
HOLYOKE        FAIR      63  30  29 N21G28    30.20S
FORT MORGAN    PTSUNNY   59  20  21 N15       30.24F
$$

COZ086-089-092>099-262300-
...SOUTHEAST COLORADO...

CITY           SKY/WX    TMP DP  RH WIND       PRES   REMARKS
PUEBLO         FAIR      63  27  25 NE26G33   30.21S
LA JUNTA       FAIR      65  24  21 N25G37    30.19S
LAMAR          PTSUNNY   63  25  23 N20G33    30.15S
SPRINGFIELD      N/A     61  24  24 N32G43    30.14S
$$




USA.gov is the U.S. government's official web portal to all federal, state and local government web resources and services.